COSMOS 2251 DEB

Satellite information

Favourite Embed

Satellite Type and Status

DEBRISIN ORBIT

Key statistics

Satellite COSMOS 2251 DEB at a glance.

Uptime

11869

Days in orbit

Revolutions

≈ 15.1

Per day

Orbit

LEO

Low Earth Orbit

Inclination

74.0

Latest

Satellite identification and parameters

Extended collection of information and parameters for COSMOS 2251 DEB.

Object identification

Identified? True

Debris? True

Object name: COSMOS 2251 DEB

International designator: 1993-036AWN

Object number (NORAD): 35996

Object ID (CCSDS): 35996

Country: COMMONWEALTH OF INDEPENDENT STATES (CIS)

Current information (Y/N): Y

RCS size: SMALL

Orbital parameters

Period: 95.423 minutes

Inclination: 74.0157 deg

SMA: 6917.184 km

Apoapsis: 600.214 km

Periapsis: 477.883 km

RAAN: 106.9511 deg

Eccentricy: 0.00884253

Argument of periapsis: 198.4339 deg

Mean anomaly: 161.3644 deg

Mean motion: 15.0906793 rev/day

Mean motion (dot): 0.00020245 rev/day2

B* drag term: 0.0011651351 1/REarth

Two-line elements (TLE)

Creation date: Dec. 11, 2025, 10:54 a.m.

Reference frame: TEME

Reference center: EARTH

Epoch: Dec. 11, 2025, 12:41 a.m. UTC

TLE line 0: 0 COSMOS 2251 DEB

TLE line 1: 1 35996U 93036AWN 25345.02858242 .00020245 00000-0 11651-2 0 9992

TLE line 2: 2 35996 74.0157 106.9511 0088425 198.4339 161.3644 15.09067930723002

Live tracking on map

Real-time ground track for satellite COSMOS 2251 DEB.

In-orbit conjunctions

A list of the most updated potential collisions computed for object COSMOS 2251 DEB.

Target Orbit TCA Probability of collision Miss distance Type
ATLAS CENTAUR R/B LEO 2025-05-19 19:58:36 0.0001115716 848.0 (m) ROCKET BODY
COSMOS 2251 DEB LEO 2024-11-13 03:33:08 0.001094475 280.0 (m) DEBRIS

Associated space launch

Military communications satellite. Destroyed in a collision with Iridium 33.

COSMOS 2251 DEB was lifted into orbit during the mission ‘Kosmos-3M | Strela-2M 51’, on board a Kosmos-3M space rocket.

The launch took place on June 16, 1993, 4:17 a.m. from 132/1 (132L).

For more information about the launch, click the button.

Launch to space Kosmos-3M | Strela-2M 51
Kosmos-3M | Strela-2M 51

Agency: N/A

Status: Launch Successful

Launch date: June 16, 1993, 4:17 a.m. UTC

Rocket: Kosmos-3M

Launch pad: 132/1 (132L)

Location: Plesetsk Cosmodrome, Russian Federation

...

Latest news about this satellite

There are no fresh news available about this satellite. Check back as we update our databases every day.


Newsletter sign-up

Weekly statistics, charts and insights to help you stay on top of the space industry.